STARLINK-33755, 63579

Orbit data source: Space-Track

STARLINK-33755, 63579 is a payload satellite owned by SpaceX/Seattle (US) in LEO that was launched on Mon, 14 Apr 2025 UTC via an FALCON 9 launch vehicle from the Air Force Eastern Test Range (AFETR). Payload-class satellites include a variety of spacecraft equipped with specific instruments for various scientific and technological missions. These include communications satellites like Starlink; space stations such as the ISS; scientific satellites like the Hubble; Earth observation satellites from companies like Planet Labs, Umbra, and HawkEye 360; GPS; miniature CubeSats for education and research; and military/defense satellites.

Loading next visibility...
Identifier
63579, 2025-076L
Orbit
LEO
Country
Flag of USUS
Related business
Manufacturer
SpaceX/Seattle
Mission
Operational Commercial Communications
Bus & Motor
STARLINK V2MO, Unknown motor
Mass
575 kg wet, ~530 kg dry
Launch date (UTC)
2025-04-14 (8 months ago)
Launch vehicle
FALCON 9
Launch site
Air Force Eastern Test Range (AFETR)
Object type
Payload
Rocket body
Debris
Shape & HBR
Box + 2 Pan, 17.7 m
Radar Cross Section
36.964 m², Large (>1 m²)

Expand to show TLE details & history
Last TLE update: 15 hours ago

TLE from 15 hours ago
0 STARLINK-33755
1 63579U 25076L   25348.31198675 -.00000344  00000-0 -29657-5 0  9999
2 63579  43.0010  83.7283 0001673 267.2660  92.8000 15.27562958 38771
Epoch: 2025-12-14T07:29Z
TLE epoch observation values (Epoch: 2025-12-14T07:29:15.655Z)
Latitude
-0.00002°
Longitude
-111.81366°
Altitude
482.932 km
Speed
7.626 km/s
True Right ascension
05h 34m 54s
True Declination
0° 00' 00"
Sunlit
Object was in full shadow at epoch
Visualization orbit readout
Latitude
Unknown
Longitude
Unknown
Altitude
Unknown
Speed
Unknown
Apparent Right ascension
Unknown
Apparent Declination
Unknown
Sunlit
N/A
Visualization observer readout
Local Sidereal Time
21:22:51
Azimuth
Unknown
Elevation
Unknown
Doppler factor
Unknown
Orbital elements
Apogee altitude
486.193 km
Perigee altitude
483.897 km
Semi-major axis
6,863.182 km
Eccentricity
0.00017
Inclination
43.001°
RAAN
83.7283°
Arg. of periapsis
267.266°
True anomaly
92.81915°
Mean anomaly
92.8°
Eccentric anomaly
92.80957°
Mean motion
3.81729 °/min
Orbital period
94.31 mins
BSTAR
-0.0000029657
Loading maneuver chart data...
Computing Atmospheric mass density...
Loading historical data...
Loading historical data...
Loading historical data...
Loading historical data...
Loading historical data...
Loading historical data...
Loading historical data...

Documentation

Showing up to 5 results
|